Погода в Сангеме

Индия     15°13′32″N   74°09′37″E
темп.,
°C
ветер,
м/с
пор.,
м/с
влажн.,
%
обл.,
%
осадки,
мм/ч
давл.,
гПа
погр.,
м
27 февраля, сб
сб2723:30+22вюв01700 0.0 101123
02:30+21всв11610 0.0 100823
05:30+21в11460 0.0 100823
08:30+27с12310 0.0 1011193
11:30+37ссз24150 0.0 10102355
14:30+37з54170 0.0 10072527
17:30+31зсз34380 0.0 1005723
20:30+23юз11710 0.0 100923
28 февраля, вс
вс2823:30+22всв11720 0.0 100923
02:30+22всв11540 0.0 100723
05:30+21в11450 0.0 100723
08:30+28всв13270 0.0 1010241
11:30+38в24120 0.0 10103055
14:30+38з23150 0.0 10063191
17:30+31з34380 0.0 1006605
20:30+24ссв01610 0.0 100923
1 марта, пн
пн123:30+23вюв11580 0.0 101024
02:30+22вюв12460 0.0 100823
05:30+21юв11470 0.0 100923
08:30+27в01340 0.0 1012173
11:30+36зюз22220 0.0 10121392
14:30+36зюз44290 0.0 10082157
17:30+31з334815 0.0 1008686
20:30+23зсз11850 0.0 101123
2 марта, вт
вт223:30+22вюв11930 0.0 101123
02:30+21в11840 0.0 101023
05:30+21в12680 0.0 100924
08:30+27вюв11460 0.0 1012194
11:30+36з23250 0.0 10131690
14:30+38з45252 0.0 10092270
17:30+31з34442 0.0 1008683
20:30+23з11890 0.0 101123
3 марта, ср
ср323:30+22вюв11962 0.0 101124
02:30+21юв12931 0.0 100927
05:30+21вюв22830 0.0 100927
08:30+27св01520 0.0 1012226
11:30+37зюз23240 0.0 10121642
14:30+37з24223 0.0 10083237
17:30+31з34458 0.0 1007664
20:30+23ссз11850 0.0 101028